TimeCST,TemperatureF,Dew PointF,Humidity,Sea Level PressureIn,VisibilityMPH,Wind Direction,Wind SpeedMPH,Gust SpeedMPH,PrecipitationIn,Events,Conditions,WindDirDegrees,DateUTC
12:53 AM,37.9,32.0,79,30.08,10.0,Calm,Calm,-,N/A,,Clear,0,2013-02-15 06:53:00
1:53 AM,39.0,33.1,79,30.07,10.0,Calm,Calm,-,N/A,,Clear,0,2013-02-15 07:53:00
2:53 AM,39.0,36.0,89,30.07,10.0,Calm,Calm,-,N/A,,Clear,0,2013-02-15 08:53:00
3:53 AM,37.0,34.0,89,30.08,4.0,Calm,Calm,-,N/A,,Clear,0,2013-02-15 09:53:00
4:53 AM,37.0,34.0,89,30.09,4.0,Calm,Calm,-,N/A,,Clear,0,2013-02-15 10:53:00
5:33 AM,35.6,33.8,93,30.09,1.5,SE,4.6,-,N/A,,Clear,140,2013-02-15 11:33:00
5:44 AM,35.6,33.8,93,30.10,3.0,Calm,Calm,-,N/A,,Clear,0,2013-02-15 11:44:00
5:53 AM,35.1,33.1,92,30.11,8.0,Calm,Calm,-,N/A,,Clear,0,2013-02-15 11:53:00
6:53 AM,37.0,34.0,89,30.12,8.0,Calm,Calm,-,N/A,,Clear,0,2013-02-15 12:53:00
7:53 AM,43.0,37.9,82,30.14,10.0,WNW,5.8,-,N/A,,Clear,300,2013-02-15 13:53:00
8:53 AM,46.9,37.9,71,30.15,10.0,WNW,6.9,-,N/A,,Partly Cloudy,300,2013-02-15 14:53:00
9:53 AM,53.1,37.0,55,30.15,10.0,NNW,3.5,-,N/A,,Overcast,340,2013-02-15 15:53:00
10:53 AM,55.9,37.0,49,30.15,10.0,WNW,5.8,-,N/A,,Overcast,300,2013-02-15 16:53:00
11:53 AM,55.9,32.0,40,30.14,10.0,NW,11.5,17.3,N/A,,Mostly Cloudy,320,2013-02-15 17:53:00
12:53 PM,55.0,32.0,42,30.12,10.0,WNW,9.2,-,N/A,,Mostly Cloudy,300,2013-02-15 18:53:00
1:53 PM,57.0,33.1,40,30.11,10.0,NNW,9.2,-,N/A,,Overcast,330,2013-02-15 19:53:00
2:53 PM,53.1,32.0,45,30.11,10.0,NNW,8.1,-,N/A,,Overcast,330,2013-02-15 20:53:00
3:53 PM,53.1,30.0,41,30.12,10.0,NW,8.1,-,N/A,,Overcast,320,2013-02-15 21:53:00
4:53 PM,51.1,30.0,44,30.12,10.0,NNW,4.6,-,N/A,,Mostly Cloudy,330,2013-02-15 22:53:00
5:53 PM,50.0,28.9,44,30.12,10.0,NW,4.6,-,N/A,,Mostly Cloudy,320,2013-02-15 23:53:00
6:53 PM,48.9,28.0,44,30.12,10.0,NNW,4.6,-,N/A,,Mostly Cloudy,340,2013-02-16 00:53:00
7:53 PM,46.9,25.0,42,30.14,10.0,North,8.1,-,N/A,,Mostly Cloudy,360,2013-02-16 01:53:00
8:53 PM,45.0,26.1,48,30.16,10.0,North,9.2,16.1,N/A,,Scattered Clouds,360,2013-02-16 02:53:00
9:53 PM,44.1,25.0,47,30.16,10.0,North,9.2,17.3,N/A,,Overcast,350,2013-02-16 03:53:00
10:53 PM,42.1,24.1,49,30.16,10.0,North,4.6,-,N/A,,Mostly Cloudy,10,2013-02-16 04:53:00
11:53 PM,41.0,24.1,51,30.15,10.0,NNE,8.1,-,N/A,,Mostly Cloudy,20,2013-02-16 05:53:00